Weather History for KEVV - July, 2013

Change the Weather History Date:

Saturday, July 20, 2013

  Actual Average Record
Temperature  
Mean Temperature 82 °F 78 °F  
Max Temperature 91 °F 89 °F 103 °F (1930)
Min Temperature 72 °F 68 °F 53 °F (1947)
Degree Days  
Heating Degree Days 0 0  
Month to date heating degree days 0 0  
Since 1 June heating degree days 1 6  
Since 1 July heating degree days 0 0  
Cooling Degree Days 17 13  
Month to date cooling degree days 257 260  
Year to date cooling degree days 724 693  
Since 1 June cooling degree days 553 558  
Growing Degree Days 32 (Base 50)    
Moisture  
Dew Point 70 °F    
Average Humidity 73    
Maximum Humidity 93    
Minimum Humidity 52    
Precipitation  
Precipitation 0.09 in 0.12 in 2.61 in (1916)
Month to date precipitation 0.51 2.62  
Year to date precipitation 30.61 26.64  
Snow  
Snow 0.00 in 0.00 in - ()
Month to date snowfall 0.0 0.0  
Since 1 June snowfall 0.0 0.0  
Since 1 July snowfall 0.0 0.0  
Snow Depth 0.00 in    
Sea Level Pressure  
Sea Level Pressure 29.91 in    
Wind  
Wind Speed 7 mph (SW)    
Max Wind Speed 25 mph    
Max Gust Speed 33 mph    
Visibility 9 miles    
Events Rain    
T = Trace of Precipitation, MM = Missing Value Source: NWS Daily Summary

Daily Weather History Graph

Daily Weather History Graph

Search for Another Location

Airport or City:

Trip Planner

Search our weather history database for the weather conditions in past years. The results will help you decide how hot, cold, wet, or windy it might be!

Date:

Astronomy

Jul. 20, 2013 Rise Set
Actual Time 5:43 AM CDT 8:09 PM CDT
Civil Twilight 5:13 AM CDT 8:39 PM CDT
Nautical Twilight 4:35 AM CDT 9:16 PM CDT
Astronomical Twilight 3:54 AM CDT 9:57 PM CDT
Moon 6:12 PM CDT (7/20) 3:22 AM CDT (7/20)
Length of Visible Light 15h 26m
Length of Day
14h 25m
Waxing Gibbous, 94% of the Moon is Illuminated
Jul 20
Waxing Gibbous
Jul 22
Full
Jul 29
Last Quarter
Aug 6
New
Aug 14
First Quarter

Hourly Weather History & Observations

Time (CDT) Temp. Heat Index Dew Point Humidity Pressure Visibility Wind Dir Wind Speed Gust Speed Precip Events Conditions
12:54 AM 77.0 °F - 71.1 °F 82% 29.94 in 10.0 mi South 4.6 mph - N/A   Clear
1:54 AM 77.0 °F - 71.1 °F 82% 29.93 in 10.0 mi Calm Calm - N/A   Clear
2:54 AM 75.0 °F - 71.1 °F 87% 29.92 in 10.0 mi SW 5.8 mph - N/A   Clear
3:54 AM 75.0 °F - 71.1 °F 87% 29.90 in 10.0 mi SW 6.9 mph - N/A   Clear
4:54 AM 73.0 °F - 70.0 °F 90% 29.91 in 10.0 mi SW 3.5 mph - N/A   Clear
5:54 AM 73.0 °F - 70.0 °F 90% 29.93 in 8.0 mi SW 4.6 mph - N/A   Clear
6:54 AM 75.9 °F - 72.0 °F 87% 29.92 in 10.0 mi SW 8.1 mph - N/A   Clear
7:54 AM 79.0 °F - 72.0 °F 79% 29.93 in 10.0 mi SW 6.9 mph - N/A   Clear
8:54 AM 82.0 °F 86.7 °F 72.0 °F 71% 29.94 in 10.0 mi WSW 11.5 mph - N/A   Clear
9:54 AM 84.0 °F 89.6 °F 72.0 °F 67% 29.93 in 10.0 mi WSW 12.7 mph - N/A   Clear
10:54 AM 86.0 °F 92.2 °F 72.0 °F 63% 29.93 in 10.0 mi SW 12.7 mph 18.4 mph N/A   Partly Cloudy
11:54 AM 87.1 °F 94.5 °F 73.0 °F 63% 29.92 in 10.0 mi WSW 5.8 mph - N/A   Mostly Cloudy
12:54 PM 87.1 °F 93.6 °F 72.0 °F 61% 29.90 in 10.0 mi SW 12.7 mph - N/A   Scattered Clouds
1:54 PM 89.1 °F 96.0 °F 72.0 °F 57% 29.89 in 10.0 mi SW 13.8 mph 20.7 mph N/A   Scattered Clouds
2:54 PM 90.0 °F 96.9 °F 72.0 °F 55% 29.86 in 10.0 mi SSW 13.8 mph - N/A   Partly Cloudy
3:54 PM 91.0 °F 98.2 °F 72.0 °F 53% 29.83 in 10.0 mi SW 9.2 mph 18.4 mph N/A   Scattered Clouds
4:54 PM 91.0 °F 97.6 °F 71.1 °F 52% 29.85 in 10.0 mi SW 6.9 mph - N/A   Partly Cloudy
5:36 PM 77.0 °F - 66.2 °F 69% 29.89 in 10.0 mi NNE 17.3 mph 27.6 mph N/A   Mostly Cloudy
5:54 PM 77.0 °F - 66.0 °F 69% 29.90 in 10.0 mi NNE 16.1 mph 24.2 mph 0.00 in Rain Light Rain
6:13 PM 73.4 °F - 68.0 °F 83% 29.93 in 1.8 mi North 11.5 mph 18.4 mph 0.06 in Rain Heavy Rain
6:19 PM 73.4 °F - 68.0 °F 83% 29.94 in 3.0 mi North 6.9 mph 18.4 mph 0.08 in Rain Rain
6:54 PM 73.0 °F - 69.1 °F 87% 29.93 in 10.0 mi North 5.8 mph - 0.08 in   Overcast
7:54 PM 73.0 °F - 69.1 °F 87% 29.94 in 10.0 mi Calm Calm - 0.00 in Rain Light Rain
8:54 PM 73.0 °F - 69.1 °F 87% 29.95 in 10.0 mi SSW 4.6 mph - 0.00 in Rain Light Rain
9:54 PM 73.0 °F - 70.0 °F 90% 29.92 in 10.0 mi WSW 6.9 mph - 0.01 in   Clear
10:54 PM 72.0 °F - 69.1 °F 91% 29.91 in 10.0 mi WSW 3.5 mph - N/A   Clear
11:54 PM 72.0 °F - 69.1 °F 91% 29.92 in 10.0 mi ENE 3.5 mph - N/A   Scattered Clouds